Вернуться в каталог

STARLINK-31463

АктивенСвязьVLEO
NORAD 59296·PAYLOAD·🇺🇸 United States

Запущен Mar 24, 2024 с Cape Canaveral Space Force Station

Loading…

Ближайшие Пролёты (ближайшие 24 часа)

TLE

СвежийSource: CelesTrak SupGP

Эпоха: Sep 14, 2026, 21:25 UTC

1 59296C 24056A   26257.89284722  .00035277  00000+0  12779-2 0  2570
2 59296  43.0023 238.2451 0001517 263.1064 188.2817 15.27556042    19

Отслеживайте STARLINK-31463 в реальном времени с AllMySat

Download on the App Store